Regional Weather Roundup
Issued by NWS

Home | Current Version | Previous Version | Graphics & Text | Print | Product List | Glossary On
Versions: 1 2 3 4 5 6 7 8 9 10 11 12 13 14 15 16 17 18 19 20 21 22 23 24 25 26 27 28 29 30 31 32 33 34 35 36 37 38 39 40 41 42 43 44 45 46 47 48 49 50
000
ASUS45 KPSR 251200
RWRAZ

PRELIMINARY ARIZONA REGIONAL HOURLY WEATHER ROUNDUP
NATIONAL WEATHER SERVICE PHOENIX AZ
500 AM MST FRI JUL 25 2014

NOTE: FAIR INDICATES FEW OR NO CLOUDS BELOW 12,000 FEET WITH NO
SIGNIFICANT WEATHER AND/OR OBSTRUCTIONS TO VISIBILITY.

AZZ001>003-036-251300-
NORTHWEST ARIZONA

CITY           SKY/WX    TMP DP  RH WIND       PRES   REMARKS
KINGMAN        PTCLDY    80  52  37 SE10      30.00R
6HR MIN TEMP:  80; 6HR MAX TEMP:  86;

$$

AZZ004>008-015-016-018-251300-
NORTH CENTRAL ARIZONA

CITY           SKY/WX    TMP DP  RH WIND       PRES   REMARKS
GRAND CANYON   MOCLDY    59  55  87 CALM      30.28R FOG
6HR MIN TEMP:  58; 6HR MAX TEMP:  65; 6HR PCP: TRACE;

WILLIAMS       PTCLDY    55  46  71 SE10      30.35S
PRESCOTT       PTCLDY    65  52  62 S3        30.16R
6HR MIN TEMP:  63; 6HR MAX TEMP:  69;

FLAGSTAFF      CLEAR     50  47  89 CALM      30.33R
6HR MIN TEMP:  50; 6HR MAX TEMP:  57;

PAYSON         CLEAR     72  48  43 CALM      30.21R
PAGE           CLOUDY    83  52  34 NE5       30.07S
6HR MIN TEMP:  81; 6HR MAX TEMP:  87; 6HR PCP: TRACE;

$$

AZZ009>014-017-251300-
NORTHEAST ARIZONA

CITY           SKY/WX    TMP DP  RH WIND       PRES   REMARKS
WINSLOW        NOT AVBL
SAINT JOHNS    CLEAR     66  47  50 W6        30.22R
6HR MIN TEMP:  63; 6HR MAX TEMP:  80;

WINDOW ROCK    PTCLDY    58  45  62 CALM      30.31S
6HR MIN TEMP:  56; 6HR MAX TEMP:  70;

$$

AZZ023-251300-
GREATER PHOENIX AREA

CITY           SKY/WX    TMP DP  RH WIND       PRES   REMARKS
PHOENIX        PTCLDY    92  62  36 E6        29.86R
6HR MIN TEMP:  92; 6HR MAX TEMP: 100;

BUCKEYE          N/A     86  61  42 NE5       29.85R
DEER VALLEY    CLEAR     88  60  38 NE3       29.88R
6HR MIN TEMP:  87; 6HR MAX TEMP:  97;

SCOTTSDALE     CLEAR     89  64  43 E3        29.90S
6HR MIN TEMP:  88; 6HR MAX TEMP:  97;

MESA-GATEWAY   CLEAR     86  57  37 E6        29.90S
$$

AZZ027-028-251300-
SOUTHWEST MARICOPA COUNTY AND PINAL COUNTY

CITY           SKY/WX    TMP DP  RH WIND       PRES   REMARKS
CASA GRANDE    CLEAR     88  63  42 CALM      29.90S
6HR MIN TEMP:  88; 6HR MAX TEMP:  93;

$$

AZZ503-504-507>509-251300-
SOUTHEAST ARIZONA

CITY           SKY/WX    TMP DP  RH WIND       PRES   REMARKS
TUCSON         CLOUDY    84  64  50 S13       30.01R
6HR MIN TEMP:  84; 6HR MAX TEMP:  90;

DAVIS-MONTHAN  CLEAR     82  65  56 SE6       30.00S
6HR MIN TEMP:  82; 6HR MAX TEMP:  88;

NOGALES        CLOUDY    72  64  76 E3        30.10S
6HR MIN TEMP:  72; 6HR MAX TEMP:  78;

SIERRA VISTA   CLEAR     72  61  68 SW3       30.16R DUST
SAFFORD        CLEAR     76  42  29 NW5       30.00R
6HR MIN TEMP:  75; 6HR MAX TEMP:  87;

$$

AZZ020-021-025-026-031-251300-
SOUTHWEST ARIZONA

CITY           SKY/WX    TMP DP  RH WIND       PRES   REMARKS
YUMA           NOT AVBL
$$

CAZ031-033-041-043-047-048-061-251300-
SOUTHERN CALIFORNIA

CITY           SKY/WX    TMP DP  RH WIND       PRES   REMARKS
DOWNTOWN L.A.  CLEAR     69  64  84 CALM      29.86S
6HR MIN TEMP:  69; 6HR MAX TEMP:  73;

L.A. AIRPORT   MOCLDY    71  65  81 SE9       29.87R
6HR MIN TEMP:  70; 6HR MAX TEMP:  73;

SAN DIEGO      CLOUDY    69  63  81 S8        29.89R
6HR MIN TEMP:  69; 6HR MAX TEMP:  72;

BURBANK        CLEAR     69  61  75 E3        29.88R
6HR MIN TEMP:  69; 6HR MAX TEMP:  78;

ONTARIO        PTCLDY    71  61  70 W5        29.88R
6HR MIN TEMP:  71; 6HR MAX TEMP:  82;

RIVERSIDE      CLEAR     70  61  73 W3        29.88R
6HR MIN TEMP:  70; 6HR MAX TEMP:  82;

PALM SPRINGS   PTCLDY    93  43  17 N10       29.78R
6HR MIN TEMP:  91; 6HR MAX TEMP: 102;

EL CENTRO NAS  PTCLDY    88  75  65 E13       29.70R
6HR MIN TEMP:  88; 6HR MAX TEMP: 104;

IMPERIAL       PTCLDY    89  75  63 E13       29.70R
6HR MIN TEMP:  89; 6HR MAX TEMP: 105;

BLYTHE         MOCLDY    94  57  28 CALM      29.74R
6HR MIN TEMP:  94; 6HR MAX TEMP: 103;

$$

NVZ020-UTZ003-251300-
SOUTHERN NEVADA-UTAH

CITY           SKY/WX    TMP DP  RH WIND       PRES   REMARKS
LAS VEGAS      NOT AVBL
SALT LAKE CITY PTCLDY    65  44  46 CALM      30.02S
6HR MIN TEMP:  65; 6HR MAX TEMP:  74;

$$

NMZ009-TXZ055-251300-
NEW MEXICO-WEST TEXAS

CITY           SKY/WX    TMP DP  RH WIND       PRES   REMARKS
ALBUQUERQUE    PTCLDY    72  41  32 SE7       30.21R
6HR MIN TEMP:  72; 6HR MAX TEMP:  79;

EL PASO        PTCLDY    73  54  51 CALM      30.11R
6HR MIN TEMP:  73; 6HR MAX TEMP:  85;

$$


........................KEY........................
SKY/WX - SKY CONDITION/WEATHER
TMP    - TEMPERATURE IN FAHRENHEIT
DP     - DEW POINT IN FAHRENHEIT
RH     - RELATIVE HUMIDITY IN PERCENT
WIND   - DIRECTION AND SPEED IN MILES PER HOUR (MPH)
VRB    - VARIABLE WIND DIRECTION
PRES   - MEAN SEA LEVEL PRESSURE IN INCHES OF MERCURY
         F - FALLING PRESSURE   R - RISING PRESSURE
         S - STEADY PRESSURE
VSB    - VISIBILITY IN MILES
HX     - HEAT INDEX IN FAHRENHEIT
WCI    - WIND CHILL INDEX IN FAHRENHEIT
TC     - TEMPERATURE IN CELSIUS WHICH IS ALSO KNOWN AS
         TEMPERATURE IN CENTIGRADE
AFB    - AIR FORCE BASE
         LUKE AFB IS LUKE AIR FORCE BASE
         DAVIS-MONTHAN IS DAVIS-MONTHAN AIR FORCE BASE
NAS    - NAVAL AIR STATION
         EL CENTRO NAS IS EL CENTRO NAVAL AIR STATION
N/A    - NOT AVAILABLE


USA.gov is the U.S. government's official web portal to all federal, state and local government web resources and services.